CW6573 Weather Reports


time (UTC)temp
C
wind
direction
speed
KPH
gust
KPH
rain 1hr
cm
rain 24hr
cm
rain mn
cm
humidity
%
barometer
mb
20260503072521 19 338 8.0 14.5 0.08 0.99 0.10 94 1015.3
20260503072019 19 321 6.4 17.7 0.10 0.99 0.10 94 1015.3
20260503071603 19 300 9.7 17.7 0.10 0.99 0.10 93 1015.4
20260503071016 19 302 8.0 16.1 0.10 0.99 0.10 93 1015.6
20260503070518 20 328 6.4 12.9 0.10 0.99 0.10 93 1015.5
20260503070107 20 296 4.8 9.7 0.10 0.99 0.10 94 1015.8
20260503060110 20 297 3.2 6.4 0.00 0.86 0.00 93 1015.7
20260503055016 20 296 3.2 6.4 0.00 0.86 0.00 93 1015.7
20260503054606 20 306 3.2 4.8 0.00 0.86 0.00 93 1015.8
20260503054023 20 292 1.6 4.8 0.00 0.86 0.00 93 1015.4
20260503053521 21 302 1.6 4.8 0.00 0.86 0.00 93 1015.7
20260503053101 21 310 0.0 4.8 0.00 0.86 0.00 93 1015.8
20260503052522 21 295 0.0 4.8 0.00 0.86 0.00 93 1016.1
20260503052017 21 302 1.6 4.8 0.00 0.86 0.00 93 1016.0
20260503051836 21 273 1.6 4.8 0.00 0.86 0.00 93 1016.1
20260503051020 21 317 1.6 11.3 0.00 0.86 0.00 93 1015.9
20260503050519 21 290 3.2 11.3 0.00 0.86 0.00 93 1016.1
20260503050108 21 292 3.2 6.4 0.00 0.86 0.00 93 1016.2
20260503045521 21 284 1.6 4.8 0.00 0.86 0.00 93 1016.0
20260503045017 21 297 0.0 6.4 0.00 0.86 0.00 93 1016.0
20260503044610 21 284 3.2 6.4 0.00 0.86 0.00 93 1016.0
20260503044017 21 323 0.0 3.2 0.00 0.86 0.00 93 1016.0
20260503043519 21 198 0.0 1.6 0.00 0.86 0.00 93 1015.9
20260503043342 21 198 0.0 3.2 0.00 0.86 0.00 93 1015.9
20260503042525 21 198 0.0 4.8 0.00 0.86 0.00 93 1015.9
20260503042023 21 195 0.0 4.8 0.00 0.86 0.00 93 1016.0
20260503041604 21 189 1.6 4.8 0.00 0.86 0.00 93 1015.9
20260503041026 21 156 0.0 4.8 0.00 0.86 0.00 93 1015.8
20260503040522 21 222 1.6 6.4 0.00 0.86 0.00 93 1015.9
20260503040108 21 165 0.0 6.4 0.00 0.86 0.00 93 1015.6
20260503035522 21 216 0.0 4.8 0.00 0.86 0.86 93 1015.7
20260503035024 21 194 0.0 6.4 0.00 0.86 0.86 93 1015.6
20260503034605 20 204 1.6 6.4 0.00 0.86 0.86 93 1015.5
20260503034023 20 186 1.6 4.8 0.00 0.86 0.86 93 1015.3
20260503033523 20 149 1.6 4.8 0.00 0.86 0.86 93 1015.2
20260503033057 20 173 0.0 3.2 0.00 0.86 0.86 93 1015.0
20260503032519 20 150 0.0 3.2 0.00 0.86 0.86 93 1014.8
20260503032023 20 150 0.0 3.2 0.00 0.86 0.86 93 1014.8
20260503031557 20 150 0.0 4.8 0.00 0.86 0.86 92 1014.8
20260503031035 20 185 1.6 4.8 0.00 0.86 0.86 93 1014.6
20260503030520 20 210 0.0 6.4 0.00 0.86 0.86 93 1014.7
20260503030118 20 184 0.0 6.4 0.00 0.86 0.86 92 1014.5
20260503025521 20 171 3.2 8.0 0.00 0.86 0.86 92 1014.7
20260503025020 20 187 1.6 8.0 0.00 0.86 0.86 92 1014.7
20260503024546 20 164 3.2 8.0 0.00 0.86 0.86 93 1014.8
20260503024021 20 167 3.2 11.3 0.00 0.86 0.86 93 1014.8
20260503023519 20 195 3.2 12.9 0.00 0.86 0.86 93 1014.7
20260503023051 20 202 6.4 12.9 0.00 0.86 0.86 93 1015.0
20260503022520 20 196 1.6 6.4 0.00 0.86 0.86 93 1014.7
20260503022018 20 163 1.6 11.3 0.00 0.86 0.86 93 1015.0
20260503021552 20 182 1.6 11.3 0.00 0.86 0.86 93 1014.8
20260503021018 20 198 1.6 6.4 0.00 0.86 0.86 93 1014.9
20260503020518 20 186 1.6 4.8 0.00 0.86 0.86 93 1014.5
20260503020052 20 203 1.6 8.0 0.00 0.86 0.86 93 1014.4
20260503015515 20 195 0.0 4.8 0.00 0.86 0.86 93 1014.4
20260503015020 20 200 1.6 4.8 0.00 0.86 0.86 93 1014.3
20260503014604 20 180 0.0 3.2 0.00 0.86 0.86 93 1014.3
20260503014017 20 180 0.0 3.2 0.00 0.86 0.86 93 1014.2
20260503013523 20 154 0.0 3.2 0.00 0.86 0.86 93 1014.0
20260503013052 20 154 1.6 3.2 0.00 0.86 0.86 93 1013.9
20260503012518 20 190 0.0 4.8 0.00 0.86 0.86 93 1014.0
20260503012021 20 227 1.6 4.8 0.00 0.86 0.86 93 1013.9
20260503011555 21 212 1.6 6.4 0.00 0.86 0.86 93 1014.0
20260503011017 21 184 1.6 8.0 0.00 0.86 0.86 93 1014.2
20260503010518 21 209 3.2 8.0 0.00 0.86 0.86 93 1014.0
20260503010108 21 180 1.6 6.4 0.00 0.86 0.86 93 1013.9
20260503005522 21 235 1.6 11.3 0.03 0.86 0.86 93 1013.8
20260503005022 21 211 3.2 11.3 0.03 0.86 0.86 93 1013.7
20260503004554 20 173 1.6 9.7 0.03 0.86 0.86 93 1013.9
20260503004019 20 182 3.2 9.7 0.03 0.86 0.86 93 1014.0
20260503003519 20 226 3.2 9.7 0.05 0.86 0.86 93 1013.9
20260503003118 21 224 4.8 11.3 0.05 0.86 0.86 93 1013.7
20260503002519 21 216 1.6 11.3 0.05 0.86 0.86 93 1013.4
20260503002019 21 212 1.6 4.8 0.05 0.86 0.86 93 1012.8
20260503001553 21 234 0.0 9.7 0.05 0.86 0.86 93 1012.2
20260503001021 21 244 3.2 11.3 0.05 0.86 0.86 93 1012.7
20260503000519 21 180 1.6 14.5 0.05 0.86 0.86 93 1011.4
20260503000055 21 95 8.0 14.5 0.08 0.86 0.86 93 1010.8
20260502235518 21 107 8.0 14.5 0.05 0.84 0.84 93 1011.9
20260502235021 21 121 8.0 14.5 0.05 0.84 0.84 93 1012.7
20260502234551 21 117 4.8 8.0 0.05 0.84 0.84 93 1013.1
20260502234022 21 155 3.2 14.5 0.08 0.84 0.84 93 1013.2
20260502233522 21 142 8.0 14.5 0.05 0.81 0.81 93 1012.5
20260502233054 21 153 4.8 14.5 0.05 0.81 0.81 93 1013.0
20260502232519 21 137 6.4 14.5 0.05 0.81 0.81 93 1013.1
20260502232021 21 153 6.4 11.3 0.05 0.81 0.81 93 1012.9
20260502231609 21 91 3.2 17.7 0.05 0.81 0.81 93 1012.7
20260502231031 21 135 8.0 17.7 0.05 0.81 0.81 93 1012.6
20260502230517 21 123 6.4 12.9 0.05 0.81 0.81 92 1013.0
20260502230050 21 122 1.6 6.4 0.03 0.79 0.79 92 1013.0
20260502225518 21 124 1.6 6.4 0.03 0.79 0.79 92 1012.9
20260502225015 21 123 3.2 6.4 0.05 0.79 0.79 92 1012.8
20260502224549 21 173 1.6 4.8 0.05 0.79 0.79 92 1013.2
20260502224016 21 248 0.0 8.0 0.08 0.74 0.74 92 1013.2
20260502223515 21 238 4.8 8.0 0.10 0.74 0.74 92 1013.4
20260502223049 21 181 1.6 4.8 0.10 0.74 0.74 92 1013.2
20260502222515 21 193 1.6 6.4 0.15 0.74 0.74 92 1013.2
20260502222013 21 188 1.6 11.3 0.15 0.74 0.74 92 1013.1
20260502221549 21 163 6.4 12.9 0.18 0.74 0.74 92 1012.8
20260502221016 21 131 4.8 11.3 0.18 0.74 0.74 92 1012.5
20260502220515 21 148 4.8 11.3 0.20 0.74 0.74 92 1012.4
20260502220050 21 150 3.2 12.9 0.20 0.74 0.74 92 1012.7
20260502215520 21 119 6.4 12.9 0.28 0.74 0.74 92 1012.8
20260502215019 21 130 6.4 12.9 0.64 0.74 0.74 92 1012.9
20260502214556 21 123 4.8 8.0 0.71 0.74 0.74 92 1013.0
20260502214017 21 131 1.6 12.9 0.66 0.66 0.66 92 1013.2
20260502213515 21 153 6.4 12.9 0.66 0.66 0.66 92 1013.5
20260502213050 21 144 3.2 8.0 0.64 0.64 0.64 92 1013.3
20260502212517 21 186 1.6 9.7 0.61 0.61 0.61 91 1013.1
20260502212016 21 186 3.2 9.7 0.56 0.56 0.56 91 1013.3
20260502211551 21 212 1.6 8.0 0.56 0.56 0.56 91 1013.0
20260502211015 21 183 1.6 12.9 0.56 0.56 0.56 90 1013.0
20260502210521 21 198 6.4 14.5 0.56 0.56 0.56 90 1012.9
20260502210056 21 250 6.4 20.9 0.53 0.53 0.53 89 1013.0
20260502205516 21 187 9.7 20.9 0.46 0.46 0.46 89 1013.0
20260502205017 22 248 6.4 14.5 0.08 0.08 0.08 88 1013.2
20260502204552 22 234 6.4 17.7 0.03 0.03 0.03 87 1013.1
20260502204017 22 257 9.7 29.0 0.00 0.00 0.00 86 1013.1
20260502203516 23 288 16.1 33.8 0.00 0.00 0.00 83 1013.1
20260502203110 25 282 19.3 33.8 0.00 0.00 0.00 78 1013.1
20260502202516 26 251 16.1 29.0 0.00 0.00 0.00 78 1013.1
20260502202017 27 259 6.4 12.9 0.00 0.00 0.00 77 1012.9
20260502201550 27 254 6.4 12.9 0.00 0.00 0.00 76 1013.1
20260502201018 27 246 4.8 14.5 0.00 0.00 0.00 76 1012.8
20260502200515 27 247 9.7 14.5 0.00 0.00 0.00 75 1013.1
20260502200056 27 246 8.0 12.9 0.00 0.00 0.00 75 1012.9
20260502195517 27 224 4.8 12.9 0.00 0.00 0.00 74 1012.8
20260502195016 27 190 6.4 16.1 0.00 0.00 0.00 73 1012.8
20260502194600 27 252 8.0 17.7 0.00 0.00 0.00 72 1012.7
20260502194017 27 207 9.7 20.9 0.00 0.00 0.00 71 1012.7
20260502193516 27 225 11.3 20.9 0.00 0.00 0.00 71 1012.9
20260502193054 27 231 11.3 19.3 0.00 0.00 0.00 71 1012.9
20260502192517 27 227 6.4 16.1 0.00 0.00 0.00 70 1012.8
20260502192013 27 247 6.4 17.7 0.00 0.00 0.00 70 1012.8
20260502191601 27 238 6.4 17.7 0.00 0.00 0.00 70 1012.9
20260502191015 27 265 6.4 12.9 0.00 0.00 0.00 69 1012.8
20260502190518 28 263 6.4 14.5 0.00 0.00 0.00 69 1012.9
20260502190057 28 217 6.4 19.3 0.00 0.00 0.00 68 1013.0
20260502185516 28 244 8.0 19.3 0.00 0.00 0.00 67 1013.1
20260502185016 28 217 9.7 19.3 0.00 0.00 0.00 67 1013.0
20260502184549 28 231 8.0 19.3 0.00 0.00 0.00 67 1013.2
20260502184017 28 193 8.0 19.3 0.00 0.00 0.00 67 1013.1
20260502183531 28 242 12.9 25.7 0.00 0.00 0.00 66 1013.1
20260502183053 28 244 12.9 25.7 0.00 0.00 0.00 66 1012.8
20260502182517 28 254 9.7 24.1 0.00 0.00 0.00 66 1013.0
20260502182021 29 209 14.5 24.1 0.00 0.00 0.00 66 1013.1
20260502181607 29 298 8.0 25.7 0.00 0.00 0.00 67 1013.3
20260502181023 28 254 3.2 25.7 0.00 0.00 0.00 68 1013.1
20260502180736 28 215 9.7 19.3 0.00 0.00 0.00 67 1013.2
20260502170114 30 173 8.0 27.4 0.00 0.00 0.00 67 1013.5
20260502164018 30 207 11.3 25.7 0.00 0.00 0.00 67 1013.3
20260502163519 30 161 14.5 29.0 0.00 0.00 0.00 66 1013.2
20260502163055 29 219 8.0 29.0 0.00 0.00 0.00 69 1013.3
20260502162517 29 155 9.7 27.4 0.00 0.00 0.00 68 1013.5
20260502162019 30 188 17.7 27.4 0.00 0.00 0.00 67 1013.4
20260502161601 30 239 6.4 25.7 0.00 0.00 0.00 68 1013.5
20260502161017 29 235 12.9 25.7 0.00 0.00 0.00 68 1013.4
20260502160520 29 138 8.0 24.1 0.00 0.00 0.00 69 1013.4
20260502152017 27 172 8.0 17.7 0.00 0.00 0.00 75 1013.4
20260502151607 27 163 6.4 20.9 0.00 0.00 0.00 75 1013.5
20260502151019 27 157 8.0 16.1 0.00 0.00 0.00 74 1013.5
20260502150519 28 208 8.0 20.9 0.00 0.00 0.00 75 1013.5
20260502150114 27 184 6.4 20.9 0.00 0.00 0.00 74 1013.6
20260502140111 26 265 6.4 19.3 0.00 0.00 0.00 83 1013.4
20260502130530 22 126 6.4 14.5 0.00 0.00 0.00 89 1012.8
20260502123516 21 132 9.7 17.7 0.00 0.00 0.00 92 1012.3
20260502123058 21 134 12.9 17.7 0.00 0.00 0.00 92 1012.2
20260502122516 20 157 9.7 12.9 0.00 0.00 0.00 93 1012.1
20260502122019 20 130 6.4 12.9 0.00 0.00 0.00 94 1012.0
20260502121551 20 129 8.0 12.9 0.00 0.00 0.00 94 1012.1
20260502121022 20 142 6.4 12.9 0.00 0.00 0.00 94 1012.4
20260502120521 20 132 6.4 11.3 0.00 0.00 0.00 94 1012.2
20260502120326 20 134 4.8 11.3 0.00 0.00 0.00 94 1012.5
20260502115517 20 121 4.8 12.9 0.00 0.00 0.00 94 1012.3
20260502115016 19 119 3.2 12.9 0.00 0.00 0.00 94 1012.5
20260502114554 19 126 4.8 9.7 0.00 0.00 0.00 94 1012.1
20260502114017 19 130 4.8 9.7 0.00 0.00 0.00 94 1012.3
20260502113515 19 148 4.8 12.9 0.00 0.00 0.00 94 1012.2
20260502113059 19 157 6.4 12.9 0.00 0.00 0.00 94 1012.2
20260502112518 19 118 6.4 14.5 0.00 0.00 0.00 94 1012.0
20260502112019 19 127 6.4 14.5 0.00 0.00 0.00 94 1012.0
20260502111551 19 123 8.0 12.9 0.00 0.00 0.00 94 1011.9
20260502111015 19 135 4.8 11.3 0.00 0.00 0.00 94 1011.9
20260502110516 19 138 3.2 8.0 0.00 0.00 0.00 94 1011.9
20260502105522 19 129 3.2 9.7 0.00 0.00 0.00 94 1011.9
20260502105015 19 128 4.8 11.3 0.00 0.00 0.00 94 1011.7
20260502104941 19 119 4.8 11.3 0.00 0.00 0.00 94 1011.8
20260502104014 19 125 4.8 11.3 0.00 0.00 0.00 94 1011.8
20260502103512 19 151 4.8 12.9 0.00 0.00 0.00 94 1011.6
20260502103037 19 135 8.0 12.9 0.00 0.00 0.00 94 1011.5
20260502102513 19 146 8.0 12.9 0.00 0.00 0.00 94 1011.5
20260502102014 19 135 4.8 11.3 0.00 0.00 0.00 94 1011.4
20260502101538 19 140 4.8 9.7 0.00 0.00 0.00 94 1011.5
20260502101011 19 139 3.2 6.4 0.00 0.00 0.00 94 1011.5
20260502100513 19 126 1.6 4.8 0.00 0.00 0.00 93 1011.7
20260502091013 18 182 0.0 0.0 0.00 0.00 0.00 93 1012.2
20260502090513 18 182 0.0 1.6 0.00 0.00 0.00 94 1012.2